Sioux Falls, SD

3:08 PM CST on December 06, 2016 (GMT -0600)
Foss

Weather History for KFSD - October, 2012

Change the Weather History Date:

Tuesday, October 2, 2012

  Actual Average Record
Temperature  
Mean Temperature 53 °F 54 °F  
Max Temperature 74 °F 66 °F 92 °F (1953)
Min Temperature 32 °F 42 °F 21 °F (1974)
Degree Days  
Heating Degree Days 12 12  
Month to date heating degree days 20 23  
Since 1 July heating degree days 183 227  
Cooling Degree Days 0 0  
Month to date cooling degree days 0 0  
Year to date cooling degree days 1182 685  
Growing Degree Days 4 (Base 50)    
Moisture  
Dew Point 28 °F    
Average Humidity 52    
Maximum Humidity 89    
Minimum Humidity 14    
Precipitation  
Precipitation 0.00 in 0.09 in 1.00 in (1926)
Month to date precipitation T 0.18  
Year to date precipitation 14.82 22.34  
Snow  
Snow 0.00 in 0.00 in 0.00 in ()
Month to date snowfall 0.0 0.0  
Since 1 July snowfall 0.0 T  
Since 1 September snowfall 0.0 T  
Snow Depth 0.00 in    
Sea Level Pressure  
Sea Level Pressure 29.92 in    
Wind  
Wind Speed 6 mph (South)    
Max Wind Speed 18 mph    
Max Gust Speed 28 mph    
Visibility 10 miles    
Events      
T = Trace of Precipitation, MM = Missing Value Source: NWS Daily Summary

Daily Weather History Graph

Daily Weather History Graph

Search for Another Location

Airport or City:

Trip Planner

Search our weather history database for the weather conditions in past years. The results will help you decide how hot, cold, wet, or windy it might be!

Date:

Astronomy

Oct. 02, 2012 Rise Set
Actual Time 7:26 AM CDT 7:05 PM CDT
Civil Twilight 6:57 AM CDT 7:33 PM CDT
Nautical Twilight 6:24 AM CDT 8:06 PM CDT
Astronomical Twilight 5:50 AM CDT 8:40 PM CDT
Moon 8:12 PM CDT (10/2) 10:00 AM CDT (10/2)
Length of Visible Light 12h 36m
Length of Day
11h 39m
Waning Gibbous, 94% of the Moon is Illuminated
Oct 2
Waning Gibbous
Oct 8
Last Quarter
Oct 15
New
Oct 21
First Quarter
Oct 29
Full

Hourly Weather History & Observations

Time (CDT) Temp. Dew Point Humidity Pressure Visibility Wind Dir Wind Speed Gust Speed Precip Events Conditions
12:56 AM 44.6 °F 33.8 °F 66% 30.01 in 10.0 mi Calm Calm - N/A   Clear
1:56 AM 37.0 °F 32.0 °F 82% 30.02 in 10.0 mi Calm Calm - N/A   Clear
2:56 AM 37.0 °F 30.9 °F 79% 30.02 in 10.0 mi Calm Calm - N/A   Clear
3:56 AM 36.0 °F 32.0 °F 86% 30.01 in 10.0 mi Calm Calm - N/A   Clear
4:56 AM 35.1 °F 30.9 °F 85% 30.01 in 10.0 mi Calm Calm - N/A   Clear
5:56 AM 35.1 °F 32.0 °F 89% 30.00 in 10.0 mi Calm Calm - N/A   Clear
6:56 AM 34.0 °F 30.0 °F 85% 30.01 in 10.0 mi Calm Calm - N/A   Clear
7:56 AM 34.0 °F 30.9 °F 89% 30.01 in 10.0 mi Calm Calm - N/A   Partly Cloudy
8:56 AM 44.1 °F 34.0 °F 68% 30.02 in 10.0 mi Calm Calm - N/A   Partly Cloudy
9:56 AM 54.0 °F 35.1 °F 49% 30.00 in 10.0 mi South 4.6 mph - N/A   Clear
10:56 AM 61.0 °F 32.0 °F 34% 29.97 in 10.0 mi South 9.2 mph - N/A   Clear
11:56 AM 64.0 °F 30.0 °F 28% 29.94 in 10.0 mi SSW 8.1 mph - N/A   Clear
12:56 PM 68.0 °F 28.0 °F 22% 29.92 in 10.0 mi South 13.8 mph 19.6 mph N/A   Clear
1:56 PM 69.1 °F 25.0 °F 19% 29.88 in 10.0 mi South 12.7 mph 20.7 mph N/A   Clear
2:56 PM 71.6 °F 24.8 °F 17% 29.85 in 10.0 mi South 9.2 mph 17.3 mph N/A   Clear
3:56 PM 73.0 °F 23.0 °F 15% 29.84 in 10.0 mi South 13.8 mph 19.6 mph N/A   Clear
4:56 PM 73.9 °F 21.9 °F 14% 29.82 in 10.0 mi SSW 10.4 mph 20.7 mph N/A   Clear
5:56 PM 72.0 °F 21.0 °F 15% 29.81 in 10.0 mi South 12.7 mph - N/A   Clear
6:56 PM 68.0 °F 21.9 °F 17% 29.82 in 10.0 mi South 9.2 mph - N/A   Clear
7:56 PM 60.8 °F 24.8 °F 25% 29.82 in 10.0 mi South 5.8 mph - N/A   Clear
8:56 PM 59.0 °F 24.8 °F 27% 29.83 in 10.0 mi South 6.9 mph - N/A   Clear
9:56 PM 62.1 °F 23.0 °F 22% 29.83 in 10.0 mi South 10.4 mph - N/A   Clear
10:56 PM 61.0 °F 21.9 °F 22% 29.83 in 10.0 mi South 10.4 mph - N/A   Clear
11:56 PM 57.9 °F 21.9 °F 25% 29.83 in 10.0 mi South 8.1 mph - N/A   Clear